RH
34 32 44 40 42 42 38 49 54 46 38 40 38 33 27 25 26 24 23 21 20 19 15 16 18 20 25 29 28 29 32 54 93 94 96 94 92 95 95 92 92 93 92 93
39 40 28 25 31 39 41 48 51 40 35 34 36 30 23 22 25 26 22 21 20 21 78 75 58 26 24 23 28 32 32 30 83 80 83 86 88 93 92 93 94 95 92 92
44 39 30 29 35 38 44 47 46 38 30 30 32 31 22 21 21 21 23 22 56 92 94 89 81 91 94 95 94 67 40 37 70 78 84 94 95 98 98 98 96 96 93 91
26 25 22 23 23 24 25 24 27 25 30 30 40 44 26 26 28 24 21 23 96 93 85 82 80 80 85 89 92 93 93 54 73 86 88 84 86 88 86 87 88 92 94 94
30 27 29 30 26 21 25 22 24 28 54 59 36 45 26 24 27 42 81 89 87 79 79 79 77 77 74 73 81 87 90 91 63 87 83 88 90 81 85 91 89 90 93 95
28 29 25 26 24 28 30 44 46 47 60 64 34 36 35 44 99 93 87 80 82 77 75 76 74 74 77 74 75 81 82 92 64 87 87 91 88 86 95 92 95 94 96 96
51 46 43 41 52 46 47 55 82 82 94 59 33 44 53 98 96 96 96 88 84 82 84 84 84 85 84 83 80 78 78 88 92 92 92 92 87 90 90 91 90 93 96 98
78 64 54 46 49 56 58 56 69 72 73 64 41 61 95 86 77 87 93 95 88 80 81 84 92 86 87 86 87 85 84 86 88 96 87 92 94 96 95 92 89 90 92 93
66 73 46 35 34 45 68 70 47 58 51 68 69 62 77 69 74 82 94 93 95 92 87 86 86 90 88 89 88 92 88 86 89 92 96 97 96 96 96 96 93 91 94 96
71 83 44 40 46 48 58 58 84 86 98 96 74 84 96 93 88 87 94 95 94 93 94 92 89 94 91 89 89 90 88 88 89 92 96 98 98 97 97 97 97 96 96 97
74 79 58 61 61 58 76 83 75 75 88 95 94 96 100 97 96 95 95 92 98 95 96 97 96 92 99 86 89 87 89 89 92 91 93 98 99 97 98 98 98 98 98 98
70 95 86 66 47 51 50 66 79 95 94 80 89 98 96 95 97 90 79 75 75 95 94 97 97 87 88 85 83 86 89 91 91 91 94 99 99 98 98 98 98 98 99 98
81 88 95 64 85 78 79 93 98 97 96 97 94 99 92 94 74 70 82 82 79 78 84 82 80 80 83 82 84 82 86 88 90 89 91 94 97 99 99 99 98 99 99 99
72 87 86 74 47 53 83 81 95 96 97 94 98 97 93 92 76 75 78 80 86 79 81 81 78 80 81 82 83 84 82 84 87 84 89 93 94 97 99 98 98 98 97 98
89 95 92 86 69 72 97 96 92 99 94 96 97 94 94 92 83 88 89 78 80 84 81 82 84 86 84 84 82 79 80 82 84 86 88 93 91 90 94 96 98 99 98 98
100 94 98 92 75 97 95 95 88 88 95 95 92 90 85 86 85 84 82 81 83 86 81 80 81 84 89 87 86 82 82 83 83 90 93 91 91 89 91 92 90 92 91 91
98 98 98 97 88 86 88 97 95 87 84 83 82 88 86 85 82 88 87 87 88 89 87 87 91 93 93 93 90 89 82 85 83 91 97 95 97 98 90 86 88 92 94 92
98 98 97 96 96 91 95 96 78 82 82 80 82 87 87 88 93 92 93 93 87 87 87 87 91 91 93 91 89 84 78 80 85 86 91 94 98 98 93 88 91 92 92 94
100 98 97 97 92 93 94 83 87 91 92 87 86 87 85 89 92 85 88 93 96 96 95 96 95 94 90 92 91 83 85 82 84 89 90 90 90 95 96 94 94 95 91 92
97 100 98 97 79 92 89 77 72 78 95 88 81 83 84 91 89 95 92 94 94 96 96 96 94 88 90 94 90 90 90 89 93 94 94 90 91 92 93 95 96 97 94 95
95 97 94 89 87 89 84 83 81 96 94 90 82 88 91 92 98 98 95 93 95 96 96 94 93 94 95 94 90 92 91 95 95 92 91 92 92 95 97 95 96 94 96 96
87 96 92 82 84 90 82 76 85 97 93 89 90 96 98 98 97 96 96 96 95 96 94 94 94 95 94 93 92 94 96 94 90 89 91 91 92 92 92 92 94 94 93 93
92 92 87 93 92 93 92 93 95 88 92 94 92 93 95 98 97 96 96 94 95 96 96 94 96 93 93 93 94 96 97 93 88 90 91 92 90 92 91 92 92 92 90 91
95 86 89 88 94 92 88 85 92 92 97 96 94 96 92 97 96 97 96 95 94 94 95 93 92 94 95 93 93 96 93 88 89 91 90 92 92 92 92 90 90 90 91 92
92 90 81 93 93 88 91 94 87 95 95 96 95 94 96 92 96 94 96 94 93 92 92 91 92 92 93 91 91 91 90 90 86 90 91 91 90 92 93 94 93 92 95 91
95 94 97 96 88 90 89 98 92 95 97 94 90 93 94 88 89 86 85 77 75 77 78 80 78 79 83 84 88 87 83 83 89 90 89 89 88 92 92 94 92 78 80 80
Wind_Speed
2 3 5 9 8 6 4 5 11 6 7 6 8 19 27 13 8 14 15 15 14 14 20 12 10 10 9 10 11 12 11 15 12 12 12 12 13 11 11 11 15 15 14 14
3 5 9 3 3 4 6 8 8 8 5 5 8 22 22 20 7 9 17 18 16 13 7 10 12 9 8 12 8 9 10 12 14 11 12 12 13 11 11 9 10 12 16 16
6 4 4 4 2 3 4 5 5 15 4 8 10 19 9 12 20 13 15 19 5 2 4 7 11 11 11 11 11 9 9 13 15 17 10 5 6 3 5 8 9 12 15 17
4 1 3 3 4 5 7 8 9 10 8 9 6 17 32 9 15 17 24 21 5 6 6 7 10 13 13 12 12 13 11 10 14 17 14 17 14 13 11 12 14 13 16 17
4 3 5 3 4 2 5 6 8 7 6 8 14 9 14 20 23 13 10 10 10 12 11 10 11 13 14 14 13 14 14 12 15 16 17 16 15 12 8 9 15 16 15 15
3 2 4 7 5 5 8 6 8 7 2 10 18 10 14 7 12 19 12 13 14 15 15 16 15 14 14 15 15 14 14 13 12 16 19 20 20 14 9 12 11 11 10 10
5 4 1 5 2 4 6 6 4 5 1 7 6 7 5 9 10 12 16 19 17 16 15 16 18 17 16 17 17 15 16 14 5 12 14 15 14 12 16 14 11 11 10 9
1 4 2 3 3 4 2 6 4 6 2 5 11 7 3 8 11 13 13 13 16 18 17 17 17 17 16 18 17 17 16 15 14 6 13 10 8 6 6 10 9 9 8 8
4 5 5 13 12 6 1 5 7 7 10 7 5 3 7 9 13 17 15 15 16 18 19 19 19 15 16 17 16 16 17 14 13 13 3 8 8 9 8 8 8 9 9 7
3 7 9 9 2 6 9 3 2 3 3 5 6 2 4 13 17 16 16 16 18 18 18 17 18 18 15 14 16 16 15 15 14 12 9 5 7 7 8 9 10 11 8 9
1 3 5 3 6 5 2 3 5 4 4 3 2 1 5 10 12 14 14 15 14 16 16 16 17 17 13 15 17 17 17 18 16 14 12 4 7 9 8 8 8 8 8 9
2 2 5 7 10 12 7 4 3 1 3 5 3 3 7 8 10 13 15 17 17 14 16 14 14 15 17 16 16 16 16 17 17 14 12 3 4 6 7 7 8 9 8 7
3 0 5 7 4 0 3 1 3 5 6 6 4 1 8 10 12 14 15 16 17 17 19 18 18 19 19 19 19 19 19 18 16 15 13 13 13 4 5 5 7 7 8 7
1 5 8 7 9 9 8 12 12 15 4 3 2 5 10 11 13 15 16 15 16 17 18 18 19 19 19 19 18 18 18 18 17 16 14 15 16 12 6 6 8 7 5 7
8 6 8 15 17 13 6 6 14 5 4 3 7 7 8 8 11 13 13 15 17 18 18 19 20 19 20 20 18 18 18 18 17 16 19 18 17 17 15 12 9 7 6 4
4 3 2 14 12 4 4 10 8 12 9 10 12 8 6 8 9 13 16 17 17 17 19 19 20 21 19 20 18 18 18 18 17 18 17 15 17 15 17 16 15 16 14 14
4 3 2 2 18 8 6 6 9 10 16 5 5 5 5 8 12 14 14 15 16 17 17 19 19 17 16 17 17 17 17 17 17 16 16 17 16 14 15 15 15 17 15 14
5 4 3 5 6 3 3 5 11 16 11 11 9 7 6 8 8 12 12 12 15 17 18 17 14 16 17 16 17 16 16 17 18 18 18 17 17 13 15 16 17 16 14 15
11 6 4 4 4 4 6 4 4 5 7 8 4 3 3 7 2 8 13 13 12 13 12 11 12 14 15 17 16 15 16 16 16 18 17 16 13 17 16 15 15 14 14 15
4 3 2 4 3 3 3 8 5 6 3 6 5 5 6 5 3 3 11 11 11 12 12 13 14 13 16 17 15 15 17 16 18 18 16 15 15 15 16 15 14 12 12 13
4 3 3 3 4 4 6 12 7 2 3 5 7 7 6 6 3 3 7 9 10 10 12 12 12 14 15 15 15 16 16 19 15 14 16 17 17 16 14 14 13 13 12 13
4 3 3 3 3 4 11 2 1 6 7 9 8 6 10 7 6 6 7 9 11 12 12 13 10 12 13 15 13 15 17 14 13 14 16 17 17 14 13 15 13 13 12 14
3 3 2 5 3 4 5 9 8 6 8 6 9 7 6 5 5 6 7 8 8 9 9 9 9 10 12 13 13 15 14 12 14 14 15 13 14 14 14 15 14 11 13 11
2 2 3 2 3 6 6 8 7 8 9 9 9 8 8 8 6 6 6 7 8 8 10 9 10 12 13 13 13 13 14 12 13 14 14 12 12 13 14 11 11 12 12 11
2 3 5 5 6 7 7 5 9 10 9 10 9 8 7 8 7 5 4 5 6 6 7 8 9 10 11 11 12 12 12 11 12 11 11 10 10 11 9 10 12 11 14 15
2 2 3 4 6 4 6 5 8 9 8 7 9 9 8 6 6 6 6 6 6 7 8 8 10 10 11 10 11 13 13 12 11 11 9 9 8 8 8 7 6 19 22 25
Wind_Direction
7 95 201 213 206 210 244 269 273 271 260 282 253 274 287 307 280 280 280 281 286 273 276 298 293 270 263 246 243 227 220 217 201 198 190 194 201 197 195 199 200 197 181 182
32 221 228 217 225 231 252 267 278 279 240 243 272 277 281 291 268 274 290 292 277 274 350 335 328 311 299 276 250 253 230 223 212 207 201 203 199 206 204 192 195 195 193 181
171 231 122 167 294 272 226 235 257 276 315 202 279 283 283 316 298 295 285 278 285 286 326 335 339 341 338 337 329 298 257 220 212 207 197 180 172 113 172 191 194 196 194 183
223 211 104 223 232 218 269 227 260 287 331 298 84 290 298 297 300 303 298 296 29 353 342 349 353 346 340 332 321 308 290 253 215 199 193 198 201 189 195 196 201 192 192 189
256 26 1 326 242 227 265 269 256 275 287 341 283 275 278 329 306 330 20 21 9 4 352 355 355 349 340 335 330 314 300 264 229 201 196 194 201 204 190 188 199 195 189 192
196 318 214 212 219 223 276 314 280 260 205 255 281 257 294 335 2 2 14 6 4 1 354 349 345 357 344 339 334 327 324 286 222 203 197 194 198 190 172 180 187 193 185 180
328 245 182 60 17 352 74 33 331 331 178 245 277 257 292 38 28 11 3 350 357 358 351 349 347 350 341 340 337 334 343 338 279 201 201 202 203 193 187 180 191 184 178 182
322 322 55 8 122 233 244 168 210 262 248 295 317 260 113 37 29 11 15 346 351 353 354 347 345 341 339 338 338 341 343 346 342 266 200 186 177 179 184 176 173 187 191 190
301 250 330 307 292 156 184 200 206 254 270 279 227 248 202 22 18 14 359 358 357 356 350 343 343 334 346 340 334 347 342 349 348 340 252 165 165 167 177 176 171 175 175 172
261 291 229 277 307 240 188 215 77 197 233 233 253 151 327 349 -0 360 348 1 359 355 345 343 347 343 336 335 350 345 348 349 344 338 336 158 157 157 162 163 168 174 166 149
185 206 282 319 214 221 169 215 208 215 239 231 298 296 11 358 6 352 349 3 355 351 341 345 345 343 344 350 354 354 356 353 348 345 336 282 156 166 155 169 165 160 148 159
218 168 278 251 275 259 242 293 108 257 219 233 185 128 25 21 9 2 358 357 356 353 346 348 347 344 0 1 0 357 359 355 350 345 341 19 140 142 153 163 154 149 149 129
171 72 320 331 276 343 113 309 287 227 255 210 140 163 42 15 10 8 5 358 354 357 355 356 358 2 2 2 1 2 2 357 353 356 3 18 12 93 128 159 143 138 128 127
170 214 195 230 272 331 300 293 287 260 230 132 73 108 32 11 5 6 3 358 357 2 1 359 3 1 4 5 4 2 359 357 2 8 12 22 13 354 84 98 93 93 115 114
162 245 216 248 262 276 322 8 344 52 102 73 74 73 44 25 11 7 357 1 6 2 2 5 4 2 6 5 4 4 3 3 1 14 23 21 17 6 34 27 59 57 62 103
178 258 284 274 250 145 77 30 27 27 71 95 112 94 52 39 26 15 9 8 7 5 5 3 5 5 6 4 3 3 5 7 8 17 26 23 30 10 33 37 35 46 35 29
212 209 249 319 137 154 48 12 45 59 37 3 72 86 104 56 39 21 7 9 5 4 7 9 5 1 2 7 5 8 6 5 16 20 25 23 28 29 29 40 41 46 39 37
238 172 184 178 176 58 159 94 91 78 45 36 90 108 108 100 81 34 16 10 9 6 7 5 359 359 3 9 13 11 12 17 17 19 23 21 27 31 37 46 46 44 43 42
221 200 235 163 71 99 170 22 350 3 46 26 14 37 145 180 123 35 17 14 11 5 5 357 359 1 4 11 14 17 21 20 22 25 23 26 21 30 32 40 43 54 53 45
330 199 275 204 134 181 57 331 313 309 43 24 24 26 14 113 77 359 4 10 8 10 9 2 3 5 14 12 9 20 27 24 22 18 22 25 29 34 37 36 35 42 49 61
343 3 23 41 104 107 352 316 291 219 207 78 62 47 65 89 63 39 14 15 13 13 13 8 7 17 14 5 13 24 25 27 17 17 24 26 26 28 29 38 39 44 43 48
19 340 16 316 120 140 358 344 68 110 83 104 90 74 81 76 64 49 32 26 19 11 7 9 16 20 14 10 14 26 25 14 17 22 27 27 27 31 28 32 31 36 44 50
54 31 63 360 77 53 20 60 57 89 115 111 104 91 87 80 55 43 40 30 18 9 360 1 11 17 17 16 16 23 15 11 23 29 29 25 31 29 30 34 31 34 35 38
45 15 94 160 89 100 85 80 70 80 104 105 105 105 103 96 72 55 36 25 21 11 11 2 17 23 17 6 13 17 13 18 27 30 26 21 26 31 33 37 34 37 36 35
233 334 114 73 112 104 84 92 107 92 88 90 88 94 97 102 90 81 46 23 13 14 7 12 18 21 13 4 12 9 10 16 35 31 26 21 23 23 26 32 40 40 39 43
346 146 155 207 162 122 145 146 118 108 108 108 106 94 79 81 86 83 66 52 39 31 20 23 22 21 12 13 14 9 11 22 26 32 24 21 23 19 24 23 24 40 47 44